Content
SEND FEEDBACK

Daily
Averages
Monthly
Summary
Vietnam

THAI NGUYEN, VIETNAM


Home > Asia > Vietnam
Elevation: 134 feet     Latitude: 21 36N     Longitude: 105 50E

WEATHER
 
SELECT A DAY
Number of Records: 245,800;   Date Range: 7/1/96 - 9/29/14
 
SHARE

PRINT THIS DATA

[ ← Previous Day ]
WEATHER ALMANAC - FEBRUARY 13, 2013
[ Next Day → ]
[ °C ]   °F
Weather ElementAverageHighLow
Temperature60.1 °F62.6 °F (1:00 pm)57.2 °F (5:30 am)
Dewpoint54.5 °F57.2 °F (9:30 pm)51.8 °F (12:30 am)
Humidity81.5 %88 % (5:30 am)72 % (12:30 am)
Barometer30.07 in30.15 in (9:00 am)30.01 in (2:30 pm)
Wind Speed8.4 mph11.5 mph (10:30 am)
Weather ElementAverage
Visibility4.8 mi
Wind DirectionNE (46.4 °)

Weather ElementTotal
Precipitation---
Heating Degree Days5.1 (Base 65)
Growing Degree Days9.9 (Base 50)
Averaged from 47 records on February 13, 2013
WEATHER CONDITIONS BREAKOUT
WIND DIRECTION BREAKOUT
WEATHER BY HOUR - FEBRUARY 13, 2013
[ °C ]   °F
Local TimeTemperatureDewpointHumidityBarometerVisibilityWind DirectionWind SpeedGust SpeedPrecipitationEventsConditions
12:30 AM60.8 °F51.8 °F72 %30.09 in6.2 miNorth (10°)6.9 mphMostly Cloudy
1:00 AM60.8 °F51.8 °F72 %30.09 in6.2 miNorth (10°)5.8 mphMostly Cloudy
1:30 AM60.8 °F53.6 °F77 %30.09 in6.2 miNNE (20°)6.9 mphMostly Cloudy
2:00 AM60.8 °F53.6 °F77 %30.09 in6.2 miNE (40°)8.1 mphMostly Cloudy
2:30 AM60.8 °F53.6 °F77 %30.09 in6.2 miNE (40°)8.1 mphMostly Cloudy
3:00 AM59.0 °F53.6 °F82 %30.09 in6.2 miNE (40°)9.2 mphMostly Cloudy
3:30 AM59.0 °F53.6 °F82 %30.06 in6.2 miNNE (30°)9.2 mphMostly Cloudy
4:00 AM59.0 °F53.6 °F82 %30.06 in5.0 miNNE (30°)9.2 mphMostly Cloudy
4:30 AM59.0 °F53.6 °F82 %30.06 in3.7 miNE (40°)9.2 mphMostly Cloudy
5:00 AM59.0 °F53.6 °F82 %30.09 in6.2 miNE (40°)9.2 mphMostly Cloudy
5:30 AM57.2 °F53.6 °F88 %30.09 in6.2 miNE (40°)10.4 mphMostly Cloudy
6:00 AM57.2 °F53.6 °F88 %30.09 in6.2 miNE (40°)9.2 mphMostly Cloudy
6:30 AM57.2 °F53.6 °F88 %30.09 in4.3 miNE (40°)9.2 mphLight Drizzle
7:00 AM57.2 °F53.6 °F88 %30.12 inNE (50°)9.2 mphLight Drizzle
7:30 AM57.2 °F53.6 °F88 %30.12 in1.8 miNE (40°)8.1 mphDrizzle
8:00 AM57.2 °F53.6 °F88 %30.12 inNE (40°)9.2 mphDrizzle
8:30 AM57.2 °F53.6 °F88 %30.12 in5.6 miNE (40°)9.2 mphMostly Cloudy
9:00 AM57.2 °F53.6 °F88 %30.15 in4.3 miNE (50°)8.1 mphMostly Cloudy
9:30 AM59.0 °F53.6 °F82 %30.15 in6.2 miNE (40°)8.1 mphMostly Cloudy
10:00 AM59.0 °F53.6 °F82 %30.15 in5.6 miNE (40°)10.4 mphMostly Cloudy
10:30 AM59.0 °F53.6 °F82 %30.15 in6.2 miNE (50°)11.5 mphMostly Cloudy
11:00 AM59.0 °F53.6 °F82 %30.12 in5.6 miNE (50°)10.4 mphMostly Cloudy
11:30 AM59.0 °F53.6 °F82 %30.12 in5.6 miNE (50°)10.4 mphMostly Cloudy
12:00 PM60.8 °F53.6 °F77 %30.12 in6.2 miNE (40°)10.4 mphMostly Cloudy
12:30 PM60.8 °F55.4 °F82 %30.09 in6.2 miNE (50°)9.2 mphMostly Cloudy
1:00 PM62.6 °F55.4 °F77 %30.06 in6.2 miNE (50°)10.4 mphMostly Cloudy
1:30 PM62.6 °F53.6 °F72 %30.06 in6.2 miNE (50°)9.2 mphMostly Cloudy
2:00 PM60.8 °F55.4 °F82 %30.04 in6.2 miNE (50°)9.2 mphMostly Cloudy
2:30 PM62.6 °F55.4 °F77 %30.01 in5.6 miENE (70°)9.2 mphMostly Cloudy
3:00 PM62.6 °F53.6 °F72 %30.01 in5.0 miNE (50°)8.1 mphMostly Cloudy
3:30 PM62.6 °F55.4 °F77 %30.01 in5.6 miNE (50°)9.2 mphMostly Cloudy
4:00 PM62.6 °F53.6 °F72 %30.01 in5.0 miENE (60°)8.1 mphMostly Cloudy
4:30 PM62.6 °F55.4 °F77 %30.01 in4.3 miENE (60°)9.2 mphMostly Cloudy
5:00 PM62.6 °F55.4 °F77 %30.01 in3.7 miENE (70°)8.1 mphMostly Cloudy
5:30 PM62.6 °F55.4 °F77 %30.01 in3.7 miENE (70°)9.2 mphMostly Cloudy
6:00 PM60.8 °F55.4 °F82 %30.01 in3.1 miENE (70°)8.1 mphMostly Cloudy
6:30 PM60.8 °F55.4 °F82 %30.01 inNE (50°)8.1 mphMostly Cloudy
7:00 PM60.8 °F55.4 °F82 %30.01 inNE (50°)5.8 mphMostly Cloudy
7:30 PM60.8 °F55.4 °F82 %30.01 inNE (50°)5.8 mphMostly Cloudy
8:00 PM60.8 °F55.4 °F82 %30.01 inENE (60°)8.1 mphMostly Cloudy
8:30 PM60.8 °F55.4 °F82 %30.04 inENE (60°)8.1 mphMostly Cloudy
9:00 PM60.8 °F55.4 °F82 %30.04 inNE (40°)6.9 mphMostly Cloudy
9:30 PM60.8 °F57.2 °F88 %30.04 in1.4 miNE (40°)6.9 mphMostly Cloudy
10:00 PM60.8 °F57.2 °F88 %30.04 in0.6 miNE (50°)4.6 mphFogDrizzle
10:30 PM60.8 °F57.2 °F88 %30.04 in0.6 miNE (50°)5.8 mphDrizzle
11:00 PM60.8 °F57.2 °F88 %30.04 in0.7 miNE (50°)6.9 mphMostly Cloudy
11:30 PM60.8 °F57.2 °F88 %30.01 in0.8 miENE (70°)5.8 mphMostly Cloudy
Hourly data recorded from VVNB, located miles away from Thai Nguyen, Vietnam







STORIES FROM OUR PARTNERS